Flag for Jordan Weather past 2 weeks in Amman, Jordan

Now
61 °F

Haze.


Feels Like: 61 °F
Forecast: 45 / 54 °F
Wind: No wind

Location: Amman Airport

Current Time: Dec 27, 2014 at 3:13:35 PM

Latest Report: Dec 27, 2014 at 2:00 PM


Visibility: 2 mi

Pressure: 30.04 "Hg

Humidity: 52%

Dew point: 43 °F

Location of AmmanLocation

Historic Weather in Amman — Graph

°F

Amman temperature yesterday

Maximum temperature yesterday: 57 °F (at 2:00 PM)
Minimum temperature yesterday: 43 °F (at 6:00 AM)
Average temperature yesterday: 50 °F

Past Weeks' High & Low Weather Summary

 TemperatureHumidityPressure
High68 °F (Dec 12, 3:00 PM)100% (Dec 15, 1:00 AM)30.33 "Hg (Dec 15, 1:00 AM)
Low41 °F (Dec 25, 8:00 AM)39% (Dec 17, 3:00 PM)30.01 "Hg (Dec 12, 2:00 PM)
Average51 °F72%30.16 "Hg
* Reported Dec 12 2:00 PM — Dec 27 2:00 PM, Amman, Weather by CustomWeather, © 2014

Note: Actual official high and low records may vary slightly from our data, if they occured in-between our weather recording intervals... More about our weather records

Advertising

Amman weather history for previous 24 hours

 ConditionsComfort  
Time TempWeatherWind HumidityBarometerVisibility
2:00 PM
Dec 27
61 °FHaze.No wind52%30.04 "Hg2 mi
1:00 PM59 °FHaze.3 mph59%30.04 "Hg2 mi
12:00 PM57 °FHaze.3 mph59%30.07 "Hg2 mi
11:00 AM55 °FHaze.6 mph63%30.07 "Hg2 mi
10:00 AM55 °FSleet. Haze.5 mph67%30.09 "Hg4 mi
9:00 AM52 °FClear.3 mph67%30.09 "Hg2 mi
8:00 AM43 °FFog.No wind93%30.07 "Hg2 mi
7:00 AM43 °FFog.No wind87%30.04 "Hg2 mi
6:00 AM43 °FFog.No wind93%30.04 "Hg2 mi
5:00 AM43 °FFog.No wind93%30.04 "Hg2 mi
4:00 AM45 °FClear.No wind81%30.04 "Hg4 mi
2:00 AM46 °FClear.No wind71%30.07 "Hg4 mi
1:00 AM46 °FPassing clouds.No wind71%30.07 "Hg4 mi
12:00 AM48 °FPassing clouds.No wind71%30.07 "Hg4 mi
11:00 PM
Dec 26
50 °FPassing clouds.No wind62%30.07 "Hg4 mi
10:00 PM50 °FPassing clouds.No wind62%30.09 "Hg4 mi
9:00 PM52 °FPassing clouds.No wind54%30.09 "Hg4 mi
8:00 PM52 °FPassing clouds.No wind54%30.09 "Hg4 mi
7:00 PM52 °FPassing clouds.No wind54%30.04 "Hg4 mi
6:00 PM54 °FPassing clouds.No wind51%30.04 "Hg4 mi
5:00 PM55 °FPassing clouds.No wind44%30.04 "Hg4 mi
4:00 PM57 °FScattered clouds.No wind41%30.04 "Hg4 mi
3:00 PM57 °FScattered clouds.8 mph41%30.07 "Hg4 mi
Weather by CustomWeather, © 2014

See weather overviewHow to use our weather pages